| time (UTC) | temp F | wind direction | speed knots | gust knots | rain 1hr in | rain 24hr in | rain mn in | humidity % | barometer mb |
| 20260510175239 | 67 | 6 | 2.6 | 2.6 | 0.00 | 0.00 | 0.00 | 45 | 1017.5 |
| 20260510174737 | 66 | 352 | 3.5 | 4.3 | 0.00 | 0.00 | 0.00 | 46 | 1017.5 |
| 20260510174234 | 67 | 316 | 1.7 | 1.7 | 0.00 | 0.00 | 0.00 | 46 | 1017.7 |
| 20260510173730 | 66 | 305 | 0.0 | 0.0 | 0.00 | 0.00 | 0.00 | 52 | 1017.7 |
| 20260510173226 | 66 | 31 | 0.9 | 0.9 | 0.00 | 0.00 | 0.00 | 51 | 1017.6 |
| 20260510172721 | 65 | 50 | 0.0 | 0.9 | 0.00 | 0.00 | 0.00 | 52 | 1018.0 |
| 20260510172218 | 65 | 347 | 2.6 | 4.3 | 0.00 | 0.00 | 0.00 | 48 | 1017.9 |
| 20260510171715 | 66 | 350 | 2.6 | 4.3 | 0.00 | 0.00 | 0.00 | 49 | 1017.8 |
| 20260510171212 | 66 | 317 | 0.9 | 0.9 | 0.00 | 0.00 | 0.00 | 47 | 1017.8 |
| 20260510170709 | 66 | 308 | 0.9 | 1.7 | 0.00 | 0.00 | 0.00 | 48 | 1018.1 |
| 20260510170205 | 65 | 136 | 1.7 | 1.7 | 0.00 | 0.00 | 0.00 | 46 | 1017.8 |
| 20260510165701 | 65 | 90 | 0.9 | 1.7 | 0.00 | 0.00 | 0.00 | 46 | 1018.0 |
| 20260510165157 | 65 | 51 | 1.7 | 2.6 | 0.00 | 0.00 | 0.00 | 45 | 1017.9 |
| 20260510164655 | 65 | 310 | 1.7 | 1.7 | 0.00 | 0.00 | 0.00 | 45 | 1017.9 |
| 20260510164152 | 65 | 344 | 0.0 | 0.9 | 0.00 | 0.00 | 0.00 | 54 | 1017.8 |
| 20260510163647 | 65 | 40 | 1.7 | 2.6 | 0.00 | 0.00 | 0.00 | 43 | 1018.0 |
| 20260510163143 | 64 | 351 | 2.6 | 4.3 | 0.00 | 0.00 | 0.00 | 47 | 1018.2 |
| 20260510162643 | 65 | 327 | 3.5 | 4.3 | 0.00 | 0.00 | 0.00 | 48 | 1018.0 |
| 20260510162140 | 64 | 43 | 0.9 | 0.9 | 0.00 | 0.00 | 0.00 | 50 | 1017.7 |
| 20260510161636 | 64 | 359 | 1.7 | 1.7 | 0.00 | 0.00 | 0.00 | 47 | 1017.9 |
| 20260510161133 | 64 | 317 | 0.9 | 0.9 | 0.00 | 0.00 | 0.00 | 51 | 1017.9 |
| 20260510160630 | 63 | 37 | 1.7 | 1.7 | 0.00 | 0.00 | 0.00 | 53 | 1017.7 |
| 20260510160130 | 63 | 303 | 1.7 | 1.7 | 0.00 | 0.00 | 0.00 | 56 | 1017.8 |
| 20260510155626 | 64 | 342 | 4.3 | 5.2 | 0.00 | 0.00 | 0.00 | 50 | 1017.6 |
| 20260510155122 | 63 | 353 | 0.9 | 0.9 | 0.00 | 0.00 | 0.00 | 59 | 1017.6 |
| 20260510154618 | 62 | 341 | 1.7 | 2.6 | 0.00 | 0.00 | 0.00 | 58 | 1017.5 |
| 20260510154114 | 62 | 318 | 0.9 | 1.7 | 0.00 | 0.00 | 0.00 | 58 | 1017.5 |
| 20260510153609 | 62 | 78 | 2.6 | 4.3 | 0.00 | 0.00 | 0.00 | 58 | 1017.5 |
| 20260510153106 | 63 | 78 | 0.9 | 1.7 | 0.00 | 0.00 | 0.00 | 60 | 1017.3 |
| 20260510152602 | 62 | 318 | 0.0 | 0.9 | 0.00 | 0.00 | 0.00 | 61 | 1017.5 |
| 20260510152054 | 62 | 336 | 0.9 | 1.7 | 0.00 | 0.00 | 0.00 | 62 | 1017.5 |
| 20260510151550 | 61 | 31 | 0.0 | 0.9 | 0.00 | 0.00 | 0.00 | 64 | 1017.4 |
| 20260510151048 | 62 | 328 | 1.7 | 1.7 | 0.00 | 0.00 | 0.00 | 63 | 1017.2 |
| 20260510150547 | 61 | 23 | 2.6 | 2.6 | 0.00 | 0.00 | 0.00 | 62 | 1017.2 |
| 20260510150043 | 61 | 342 | 1.7 | 2.6 | 0.00 | 0.00 | 0.00 | 65 | 1016.8 |
| 20260510145540 | 60 | 321 | 0.0 | 0.0 | 0.00 | 0.00 | 0.00 | 65 | 1016.7 |
| 20260510145037 | 61 | 103 | 2.6 | 2.6 | 0.00 | 0.00 | 0.00 | 64 | 1016.7 |
| 20260510144533 | 60 | 349 | 0.9 | 0.9 | 0.00 | 0.00 | 0.00 | 66 | 1016.6 |
| 20260510144030 | 60 | 18 | 3.5 | 5.2 | 0.00 | 0.00 | 0.00 | 64 | 1016.6 |
| 20260510143525 | 61 | 349 | 0.9 | 0.9 | 0.00 | 0.00 | 0.00 | 64 | 1016.7 |
| 20260510143022 | 61 | 332 | 1.7 | 2.6 | 0.00 | 0.00 | 0.00 | 68 | 1016.5 |
| 20260510142519 | 60 | 9 | 1.7 | 1.7 | 0.00 | 0.00 | 0.00 | 64 | 1016.3 |
| 20260510142015 | 61 | 343 | 2.6 | 2.6 | 0.00 | 0.00 | 0.00 | 67 | 1016.6 |
| 20260510141512 | 60 | 79 | 1.7 | 1.7 | 0.00 | 0.00 | 0.00 | 67 | 1016.3 |
| 20260510141010 | 58 | 324 | 0.0 | 0.9 | 0.00 | 0.00 | 0.00 | 68 | 1016.3 |
| 20260510140506 | 58 | 2 | 0.9 | 0.9 | 0.00 | 0.00 | 0.00 | 71 | 1016.4 |
| 20260510140006 | 57 | 329 | 0.9 | 0.9 | 0.00 | 0.00 | 0.00 | 70 | 1016.4 |
| 20260510135501 | 57 | 324 | 0.9 | 0.9 | 0.00 | 0.00 | 0.00 | 71 | 1016.4 |
| 20260510134958 | 57 | 314 | 0.0 | 0.9 | 0.00 | 0.00 | 0.00 | 71 | 1016.2 |
| 20260510134455 | 57 | 345 | 0.0 | 0.9 | 0.00 | 0.00 | 0.00 | 73 | 1016.4 |
| 20260510133952 | 56 | 330 | 0.9 | 0.9 | 0.00 | 0.00 | 0.00 | 73 | 1016.3 |
| 20260510133448 | 56 | 340 | 2.6 | 2.6 | 0.00 | 0.00 | 0.00 | 72 | 1016.5 |
| 20260510132943 | 56 | 313 | 1.7 | 1.7 | 0.00 | 0.00 | 0.00 | 75 | 1016.4 |
| 20260510132441 | 55 | 313 | 0.0 | 0.0 | 0.00 | 0.00 | 0.00 | 74 | 1016.0 |
| 20260510131938 | 55 | 286 | 0.0 | 0.9 | 0.00 | 0.00 | 0.00 | 76 | 1016.4 |
| 20260510131435 | 55 | 302 | 0.0 | 0.0 | 0.00 | 0.00 | 0.00 | 76 | 1016.2 |
| 20260510130932 | 55 | 319 | 0.9 | 0.9 | 0.00 | 0.00 | 0.00 | 77 | 1015.9 |
| 20260510130429 | 55 | 325 | 0.9 | 1.7 | 0.00 | 0.00 | 0.00 | 79 | 1015.9 |
| 20260510125926 | 55 | 322 | 2.6 | 2.6 | 0.00 | 0.00 | 0.00 | 78 | 1016.0 |
| 20260510125421 | 55 | 343 | 1.7 | 1.7 | 0.00 | 0.00 | 0.00 | 78 | 1015.9 |
| 20260510124919 | 56 | 335 | 0.9 | 0.9 | 0.00 | 0.00 | 0.00 | 77 | 1015.3 |
| 20260510124416 | 56 | 344 | 0.9 | 1.7 | 0.00 | 0.00 | 0.00 | 76 | 1015.4 |
| 20260510123912 | 56 | 283 | 0.9 | 0.9 | 0.00 | 0.00 | 0.00 | 77 | 1015.2 |
| 20260510123407 | 56 | 327 | 0.9 | 0.9 | 0.00 | 0.00 | 0.00 | 76 | 1015.4 |
| 20260510122904 | 56 | 349 | 0.9 | 0.9 | 0.00 | 0.00 | 0.00 | 76 | 1015.3 |
| 20260510122359 | 56 | 316 | 0.0 | 0.0 | 0.00 | 0.00 | 0.00 | 77 | 1015.4 |
| 20260510121855 | 56 | 319 | 0.9 | 0.9 | 0.00 | 0.00 | 0.00 | 78 | 1015.3 |
| 20260510121353 | 56 | 312 | 0.0 | 0.0 | 0.00 | 0.00 | 0.00 | 78 | 1015.4 |
| 20260510120850 | 56 | 334 | 0.9 | 1.7 | 0.00 | 0.00 | 0.00 | 77 | 1015.2 |
| 20260510120348 | 56 | 327 | 0.0 | 0.9 | 0.00 | 0.00 | 0.00 | 78 | 1015.3 |
| 20260510115843 | 56 | 349 | 2.6 | 2.6 | 0.00 | 0.00 | 0.00 | 77 | 1015.1 |
| 20260510115341 | 56 | 308 | 0.0 | 0.9 | 0.00 | 0.00 | 0.00 | 78 | 1015.0 |
| 20260510114836 | 56 | 339 | 1.7 | 1.7 | 0.00 | 0.00 | 0.00 | 78 | 1014.8 |
| 20260510114334 | 56 | 353 | 2.6 | 2.6 | 0.00 | 0.00 | 0.00 | 78 | 1014.8 |
| 20260510113833 | 56 | 312 | 0.0 | 0.0 | 0.00 | 0.00 | 0.00 | 79 | 1014.9 |
| 20260510113330 | 56 | 328 | 1.7 | 1.7 | 0.00 | 0.00 | 0.00 | 79 | 1014.7 |
| 20260510112827 | 56 | 319 | 1.7 | 1.7 | 0.00 | 0.00 | 0.00 | 79 | 1014.7 |
| 20260510112324 | 56 | 329 | 0.9 | 0.9 | 0.00 | 0.00 | 0.00 | 79 | 1014.6 |
| 20260510111820 | 57 | 316 | 0.0 | 0.9 | 0.00 | 0.00 | 0.00 | 80 | 1014.5 |
| 20260510111317 | 57 | 336 | 0.9 | 1.7 | 0.00 | 0.00 | 0.00 | 80 | 1014.3 |
| 20260510110817 | 57 | 306 | 0.0 | 0.0 | 0.00 | 0.00 | 0.00 | 80 | 1014.3 |
| 20260510110314 | 57 | 320 | 0.9 | 1.7 | 0.00 | 0.00 | 0.00 | 80 | 1014.2 |
| 20260510105810 | 57 | 317 | 0.9 | 0.9 | 0.00 | 0.00 | 0.00 | 81 | 1013.9 |
| 20260510105306 | 57 | 340 | 0.9 | 1.7 | 0.00 | 0.00 | 0.00 | 82 | 1014.0 |
| 20260510104801 | 57 | 312 | 0.0 | 0.9 | 0.00 | 0.00 | 0.00 | 82 | 1013.8 |
| 20260510104259 | 57 | 308 | 0.9 | 0.9 | 0.00 | 0.00 | 0.00 | 83 | 1013.6 |
| 20260510103755 | 57 | 287 | 1.7 | 1.7 | 0.00 | 0.00 | 0.00 | 84 | 1013.6 |
| 20260510103252 | 57 | 314 | 0.9 | 0.9 | 0.00 | 0.00 | 0.00 | 85 | 1013.4 |
| 20260510102752 | 57 | 297 | 0.0 | 0.0 | 0.00 | 0.00 | 0.00 | 85 | 1013.0 |
| 20260510102248 | 57 | 327 | 0.9 | 0.9 | 0.00 | 0.00 | 0.00 | 85 | 1013.1 |
| 20260510101745 | 57 | 285 | 0.0 | 0.9 | 0.00 | 0.00 | 0.00 | 85 | 1013.1 |
| 20260510101244 | 57 | 284 | 0.0 | 0.0 | 0.00 | 0.00 | 0.00 | 84 | 1013.0 |
| 20260510100739 | 57 | 306 | 0.9 | 0.9 | 0.00 | 0.00 | 0.00 | 84 | 1012.8 |
| 20260510100238 | 57 | 307 | 0.0 | 0.9 | 0.00 | 0.00 | 0.00 | 84 | 1013.0 |
| 20260510095733 | 57 | 309 | 0.9 | 0.9 | 0.00 | 0.00 | 0.00 | 84 | 1012.8 |
| 20260510095228 | 57 | 296 | 0.0 | 0.0 | 0.00 | 0.00 | 0.00 | 84 | 1013.0 |
| 20260510094727 | 57 | 291 | 1.7 | 1.7 | 0.00 | 0.00 | 0.00 | 85 | 1012.6 |
| 20260510094223 | 56 | 296 | 0.9 | 0.9 | 0.00 | 0.00 | 0.00 | 87 | 1012.8 |
| 20260510093719 | 56 | 286 | 0.0 | 0.0 | 0.00 | 0.00 | 0.00 | 87 | 1012.8 |
| 20260510093216 | 56 | 290 | 0.0 | 0.0 | 0.00 | 0.00 | 0.00 | 86 | 1012.7 |
| 20260510092712 | 56 | 260 | 0.0 | 0.0 | 0.00 | 0.00 | 0.00 | 86 | 1012.8 |
| 20260510092208 | 56 | 290 | 0.0 | 0.0 | 0.00 | 0.00 | 0.00 | 87 | 1012.5 |
| 20260510091704 | 56 | 232 | 0.0 | 0.9 | 0.00 | 0.00 | 0.00 | 87 | 1012.3 |
| 20260510091200 | 56 | 289 | 0.0 | 0.0 | 0.00 | 0.00 | 0.00 | 86 | 1012.2 |
| 20260510090657 | 56 | 261 | 0.0 | 0.0 | 0.00 | 0.00 | 0.00 | 86 | 1012.1 |
| 20260510090154 | 57 | 259 | 0.0 | 0.0 | 0.00 | 0.00 | 0.00 | 85 | 1011.9 |
| 20260510085649 | 57 | 249 | 0.0 | 0.0 | 0.00 | 0.00 | 0.00 | 84 | 1011.7 |
| 20260510085144 | 58 | 278 | 0.0 | 0.0 | 0.00 | 0.00 | 0.00 | 83 | 1011.7 |
| 20260510084641 | 58 | 312 | 0.0 | 0.0 | 0.00 | 0.00 | 0.00 | 83 | 1011.6 |
| 20260510084137 | 58 | 262 | 0.9 | 0.9 | 0.00 | 0.00 | 0.00 | 82 | 1011.5 |
| 20260510083634 | 59 | 264 | 0.0 | 0.0 | 0.00 | 0.00 | 0.00 | 81 | 1011.9 |
| 20260510083131 | 59 | 323 | 0.9 | 0.9 | 0.00 | 0.00 | 0.00 | 81 | 1011.4 |
| 20260510082627 | 58 | 233 | 0.0 | 0.0 | 0.00 | 0.00 | 0.00 | 82 | 1011.3 |
| 20260510082123 | 59 | 249 | 0.0 | 0.0 | 0.00 | 0.00 | 0.00 | 82 | 1011.5 |
| 20260510081623 | 59 | 295 | 0.0 | 0.0 | 0.00 | 0.00 | 0.00 | 81 | 1011.3 |
| 20260510081120 | 59 | 241 | 0.0 | 0.0 | 0.00 | 0.00 | 0.00 | 81 | 1011.3 |
| 20260510080619 | 59 | 246 | 0.9 | 0.9 | 0.00 | 0.00 | 0.00 | 81 | 1011.2 |
| 20260510080116 | 59 | 255 | 0.0 | 0.0 | 0.00 | 0.00 | 0.00 | 82 | 1011.3 |
| 20260510075613 | 59 | 203 | 0.9 | 0.9 | 0.00 | 0.00 | 0.00 | 82 | 1011.3 |
| 20260510075110 | 59 | 255 | 0.0 | 0.0 | 0.00 | 0.00 | 0.00 | 81 | 1011.5 |
| 20260510074607 | 60 | 283 | 0.0 | 0.0 | 0.00 | 0.00 | 0.00 | 80 | 1011.2 |
| 20260510074103 | 60 | 272 | 0.0 | 0.0 | 0.00 | 0.00 | 0.00 | 79 | 1011.2 |
| 20260510073559 | 60 | 323 | 0.9 | 0.9 | 0.00 | 0.00 | 0.00 | 78 | 1011.2 |
| 20260510073056 | 61 | 197 | 0.9 | 0.9 | 0.00 | 0.00 | 0.00 | 78 | 1011.2 |
| 20260510072553 | 61 | 285 | 0.0 | 0.0 | 0.00 | 0.00 | 0.00 | 79 | 1011.6 |
| 20260510072048 | 61 | 281 | 0.0 | 0.0 | 0.00 | 0.00 | 0.00 | 78 | 1011.4 |
| 20260510071545 | 61 | 255 | 1.7 | 1.7 | 0.00 | 0.00 | 0.00 | 78 | 1011.4 |
| 20260510071043 | 61 | 257 | 0.0 | 0.0 | 0.00 | 0.00 | 0.00 | 78 | 1011.3 |
| 20260510070539 | 61 | 267 | 0.0 | 0.0 | 0.00 | 0.00 | 0.00 | 78 | 1011.3 |
| 20260510070037 | 61 | 259 | 0.9 | 1.7 | 0.00 | 0.00 | 0.00 | 78 | 1011.7 |
| 20260510065533 | 61 | 225 | 0.9 | 0.9 | 0.00 | 0.00 | 0.00 | 77 | 1011.5 |
| 20260510065029 | 62 | 296 | 0.0 | 0.9 | 0.00 | 0.00 | 0.00 | 76 | 1011.3 |
| 20260510064526 | 62 | 256 | 0.0 | 0.9 | 0.00 | 0.00 | 0.00 | 76 | 1011.1 |
| 20260510064022 | 62 | 219 | 0.9 | 0.9 | 0.00 | 0.00 | 0.00 | 76 | 1011.4 |
| 20260510063519 | 62 | 276 | 0.0 | 0.0 | 0.00 | 0.00 | 0.00 | 76 | 1011.3 |
| 20260510063017 | 62 | 227 | 0.9 | 1.7 | 0.00 | 0.00 | 0.00 | 75 | 1011.8 |
| 20260510062512 | 62 | 217 | 0.9 | 0.9 | 0.00 | 0.00 | 0.00 | 75 | 1011.7 |
| 20260510062007 | 62 | 252 | 1.7 | 1.7 | 0.00 | 0.00 | 0.00 | 75 | 1011.4 |
| 20260510061505 | 62 | 256 | 0.9 | 0.9 | 0.00 | 0.00 | 0.00 | 75 | 1011.7 |
| 20260510061001 | 62 | 281 | 0.9 | 0.9 | 0.00 | 0.00 | 0.00 | 76 | 1011.6 |
| 20260510060458 | 62 | 268 | 0.0 | 0.0 | 0.00 | 0.00 | 0.00 | 75 | 1011.5 |
| 20260510055954 | 63 | 260 | 0.0 | 0.9 | 0.00 | 0.00 | 0.00 | 74 | 1011.5 |
| 20260510055449 | 63 | 255 | 0.0 | 0.0 | 0.00 | 0.00 | 0.00 | 74 | 1011.5 |
| 20260510054948 | 62 | 183 | 0.9 | 1.7 | 0.00 | 0.00 | 0.00 | 74 | 1011.3 |
| 20260510054443 | 62 | 266 | 0.9 | 0.9 | 0.00 | 0.00 | 0.00 | 74 | 1011.3 |
| 20260510053938 | 62 | 229 | 0.9 | 1.7 | 0.00 | 0.00 | 0.00 | 75 | 1011.3 |
| 20260510053434 | 62 | 243 | 1.7 | 2.6 | 0.00 | 0.00 | 0.00 | 74 | 1011.2 |
| 20260510052930 | 62 | 227 | 2.6 | 2.6 | 0.00 | 0.00 | 0.00 | 75 | 1011.3 |
| 20260510052426 | 62 | 293 | 2.6 | 2.6 | 0.00 | 0.00 | 0.00 | 74 | 1011.1 |
| 20260510051922 | 62 | 190 | 2.6 | 2.6 | 0.00 | 0.00 | 0.00 | 75 | 1011.4 |
| 20260510051419 | 62 | 220 | 0.0 | 0.0 | 0.00 | 0.00 | 0.00 | 75 | 1011.3 |
| 20260510050915 | 62 | 188 | 2.6 | 4.3 | 0.00 | 0.00 | 0.00 | 75 | 1011.3 |
| 20260510050412 | 62 | 227 | 1.7 | 1.7 | 0.00 | 0.00 | 0.00 | 74 | 1011.1 |
| 20260510045909 | 62 | 257 | 0.0 | 0.0 | 0.00 | 0.00 | 0.00 | 74 | 1011.3 |
| 20260510045406 | 62 | 270 | 2.6 | 4.3 | 0.00 | 0.00 | 0.00 | 74 | 1011.0 |
| 20260510044903 | 62 | 233 | 1.7 | 1.7 | 0.00 | 0.00 | 0.00 | 73 | 1011.2 |
| 20260510044400 | 63 | 280 | 0.9 | 1.7 | 0.00 | 0.00 | 0.00 | 73 | 1011.0 |
| 20260510043857 | 63 | 244 | 0.9 | 0.9 | 0.00 | 0.00 | 0.00 | 73 | 1011.1 |
| 20260510043352 | 63 | 264 | 3.5 | 5.2 | 0.00 | 0.00 | 0.00 | 73 | 1011.0 |
| 20260510042851 | 63 | 206 | 1.7 | 1.7 | 0.00 | 0.00 | 0.00 | 72 | 1011.0 |
| 20260510042346 | 63 | 261 | 0.9 | 1.7 | 0.00 | 0.00 | 0.00 | 72 | 1011.0 |
| 20260510041843 | 63 | 250 | 2.6 | 4.3 | 0.00 | 0.00 | 0.00 | 71 | 1011.1 |
| 20260510041340 | 63 | 193 | 1.7 | 1.7 | 0.00 | 0.00 | 0.00 | 71 | 1011.0 |
| 20260510040837 | 63 | 259 | 1.7 | 2.6 | 0.00 | 0.00 | 0.00 | 71 | 1011.1 |
| 20260510040334 | 64 | 208 | 0.9 | 2.6 | 0.00 | 0.00 | 0.00 | 70 | 1011.0 |
| 20260510035829 | 64 | 243 | 2.6 | 4.3 | 0.00 | 0.31 | 0.31 | 70 | 1011.1 |
| 20260510035326 | 64 | 231 | 3.5 | 5.2 | 0.00 | 0.31 | 0.31 | 69 | 1010.9 |
| 20260510034821 | 64 | 268 | 2.6 | 2.6 | 0.00 | 0.31 | 0.31 | 69 | 1010.8 |
| 20260510034319 | 64 | 200 | 2.6 | 2.6 | 0.00 | 0.31 | 0.31 | 69 | 1010.7 |
| 20260510033816 | 64 | 211 | 1.7 | 1.7 | 0.00 | 0.31 | 0.31 | 68 | 1010.7 |
| 20260510033313 | 64 | 268 | 4.3 | 6.1 | 0.00 | 0.31 | 0.31 | 67 | 1010.8 |
| 20260510032809 | 64 | 222 | 0.9 | 0.9 | 0.00 | 0.31 | 0.31 | 67 | 1010.7 |
| 20260510032306 | 64 | 221 | 3.5 | 4.3 | 0.00 | 0.31 | 0.31 | 68 | 1010.9 |
| 20260510031801 | 64 | 263 | 1.7 | 1.7 | 0.00 | 0.31 | 0.31 | 67 | 1010.8 |
| 20260510031257 | 64 | 269 | 2.6 | 2.6 | 0.00 | 0.31 | 0.31 | 67 | 1010.7 |
| 20260510030750 | 64 | 227 | 0.9 | 0.9 | 0.00 | 0.31 | 0.31 | 66 | 1010.6 |
| 20260510030248 | 64 | 187 | 1.7 | 1.7 | 0.00 | 0.31 | 0.31 | 67 | 1010.7 |
| 20260510025745 | 64 | 188 | 0.9 | 2.6 | 0.00 | 0.31 | 0.31 | 66 | 1010.6 |
| 20260510025243 | 64 | 259 | 1.7 | 1.7 | 0.00 | 0.31 | 0.31 | 65 | 1010.6 |
| 20260510024740 | 64 | 198 | 4.3 | 5.2 | 0.00 | 0.31 | 0.31 | 65 | 1010.4 |
| 20260510024236 | 64 | 245 | 2.6 | 2.6 | 0.00 | 0.31 | 0.31 | 65 | 1010.4 |
| 20260510023732 | 64 | 178 | 2.6 | 4.3 | 0.00 | 0.31 | 0.31 | 66 | 1010.6 |
| 20260510023229 | 64 | 175 | 3.5 | 6.1 | 0.00 | 0.31 | 0.31 | 66 | 1010.6 |
| 20260510022725 | 64 | 233 | 1.7 | 1.7 | 0.00 | 0.31 | 0.31 | 66 | 1010.4 |
| 20260510022225 | 64 | 196 | 2.6 | 2.6 | 0.00 | 0.31 | 0.31 | 65 | 1010.2 |
| 20260510021720 | 64 | 231 | 0.9 | 1.7 | 0.00 | 0.31 | 0.31 | 65 | 1010.1 |
| 20260510021218 | 63 | 254 | 0.9 | 1.7 | 0.00 | 0.31 | 0.31 | 65 | 1010.3 |
| 20260510020713 | 63 | 211 | 0.9 | 0.9 | 0.00 | 0.31 | 0.31 | 65 | 1010.3 |
| 20260510020208 | 63 | 235 | 0.0 | 0.0 | 0.00 | 0.31 | 0.31 | 65 | 1010.3 |
| 20260510015704 | 64 | 251 | 0.9 | 0.9 | 0.00 | 0.31 | 0.31 | 64 | 1010.2 |
| 20260510015201 | 64 | 240 | 0.9 | 0.9 | 0.00 | 0.31 | 0.31 | 63 | 1010.0 |
| 20260510014701 | 64 | 229 | 0.0 | 0.0 | 0.00 | 0.31 | 0.31 | 64 | 1009.9 |
| 20260510014200 | 64 | 241 | 0.0 | 0.0 | 0.00 | 0.31 | 0.31 | 64 | 1009.8 |
| 20260510013700 | 64 | 261 | 0.9 | 0.9 | 0.00 | 0.31 | 0.31 | 63 | 1010.1 |
| 20260510013156 | 64 | 226 | 0.9 | 0.9 | 0.00 | 0.31 | 0.31 | 63 | 1009.8 |
| 20260510012655 | 63 | 250 | 0.0 | 0.0 | 0.00 | 0.31 | 0.31 | 64 | 1009.9 |
| 20260510012151 | 64 | 244 | 0.0 | 0.0 | 0.00 | 0.31 | 0.31 | 63 | 1009.9 |
| 20260510011646 | 64 | 233 | 0.0 | 0.0 | 0.00 | 0.31 | 0.31 | 62 | 1009.6 |
| 20260510011142 | 65 | 238 | 0.0 | 0.0 | 0.00 | 0.31 | 0.31 | 60 | 1009.7 |
| 20260510010638 | 65 | 233 | 0.0 | 0.9 | 0.00 | 0.31 | 0.31 | 59 | 1009.5 |
| 20260510010136 | 65 | 249 | 0.0 | 0.0 | 0.00 | 0.31 | 0.31 | 59 | 1009.4 |
| 20260510005631 | 66 | 240 | 0.9 | 0.9 | 0.00 | 0.31 | 0.31 | 58 | 1009.4 |
| 20260510005128 | 66 | 215 | 0.0 | 0.9 | 0.00 | 0.31 | 0.31 | 58 | 1009.4 |
| 20260510004627 | 66 | 181 | 0.9 | 0.9 | 0.00 | 0.31 | 0.31 | 57 | 1009.4 |
| 20260510004124 | 67 | 166 | 1.7 | 1.7 | 0.00 | 0.31 | 0.31 | 57 | 1009.4 |
| 20260510003621 | 67 | 239 | 0.0 | 0.0 | 0.00 | 0.31 | 0.31 | 56 | 1009.2 |
| 20260510003117 | 67 | 240 | 0.0 | 0.9 | 0.00 | 0.31 | 0.31 | 55 | 1009.0 |
| 20260510002612 | 67 | 250 | 0.0 | 0.0 | 0.00 | 0.31 | 0.31 | 57 | 1009.0 |
| 20260510002109 | 68 | 224 | 0.0 | 0.0 | 0.00 | 0.31 | 0.31 | 55 | 1009.0 |
| 20260510001606 | 68 | 234 | 2.6 | 2.6 | 0.00 | 0.31 | 0.31 | 54 | 1008.6 |
| 20260510001105 | 68 | 92 | 0.9 | 1.7 | 0.00 | 0.31 | 0.31 | 53 | 1008.6 |
| 20260510000605 | 69 | 264 | 1.7 | 2.6 | 0.00 | 0.31 | 0.31 | 52 | 1008.7 |
| 20260509235558 | 69 | 262 | 1.7 | 1.7 | 0.00 | 0.31 | 0.31 | 52 | 1008.7 |
| 20260509235055 | 69 | 211 | 0.0 | 0.9 | 0.00 | 0.31 | 0.31 | 52 | 1008.5 |
| 20260509234551 | 69 | 230 | 1.7 | 2.6 | 0.00 | 0.31 | 0.31 | 51 | 1008.6 |
| 20260509234049 | 70 | 229 | 0.9 | 1.7 | 0.00 | 0.31 | 0.31 | 50 | 1008.5 |
| 20260509233547 | 70 | 198 | 2.6 | 2.6 | 0.00 | 0.31 | 0.31 | 50 | 1008.7 |
| 20260509233044 | 70 | 153 | 3.5 | 4.3 | 0.00 | 0.31 | 0.31 | 50 | 1008.3 |
| 20260509232540 | 70 | 251 | 2.6 | 4.3 | 0.00 | 0.31 | 0.31 | 50 | 1008.2 |
| 20260509232037 | 70 | 181 | 0.9 | 1.7 | 0.00 | 0.31 | 0.31 | 52 | 1008.2 |
| 20260509231533 | 70 | 285 | 1.7 | 1.7 | 0.00 | 0.31 | 0.31 | 50 | 1008.5 |
| 20260509231032 | 70 | 240 | 4.3 | 7.0 | 0.00 | 0.31 | 0.31 | 49 | 1008.0 |
| 20260509230528 | 70 | 210 | 4.3 | 7.0 | 0.00 | 0.31 | 0.31 | 50 | 1008.6 |
| 20260509230025 | 71 | 236 | 3.5 | 5.2 | 0.00 | 0.31 | 0.31 | 49 | 1008.3 |
| 20260509225520 | 71 | 202 | 2.6 | 2.6 | 0.00 | 0.31 | 0.31 | 51 | 1008.6 |
| 20260509225016 | 71 | 201 | 1.7 | 1.7 | 0.00 | 0.31 | 0.31 | 51 | 1008.6 |
| 20260509224512 | 71 | 304 | 3.5 | 4.3 | 0.00 | 0.31 | 0.31 | 49 | 1008.6 |
| 20260509224009 | 71 | 158 | 3.5 | 5.2 | 0.00 | 0.31 | 0.31 | 49 | 1008.5 |
| 20260509223505 | 70 | 197 | 4.3 | 6.1 | 0.00 | 0.31 | 0.31 | 49 | 1008.3 |
| 20260509223004 | 71 | 161 | 5.2 | 7.0 | 0.00 | 0.31 | 0.31 | 48 | 1008.2 |
| 20260509222459 | 71 | 233 | 4.3 | 5.2 | 0.00 | 0.31 | 0.31 | 49 | 1008.1 |
| 20260509221954 | 71 | 304 | 3.5 | 4.3 | 0.00 | 0.31 | 0.31 | 50 | 1008.6 |
| 20260509221451 | 71 | 254 | 3.5 | 6.1 | 0.00 | 0.31 | 0.31 | 49 | 1008.3 |
| 20260509220947 | 71 | 228 | 3.5 | 4.3 | 0.00 | 0.31 | 0.31 | 50 | 1008.1 |
| 20260509220443 | 71 | 285 | 0.9 | 0.9 | 0.00 | 0.31 | 0.31 | 51 | 1008.3 |
| 20260509215939 | 71 | 160 | 1.7 | 1.7 | 0.00 | 0.31 | 0.31 | 51 | 1008.7 |
| 20260509215435 | 71 | 176 | 4.3 | 6.1 | 0.00 | 0.31 | 0.31 | 50 | 1008.5 |
| 20260509214932 | 71 | 296 | 5.2 | 6.1 | 0.00 | 0.31 | 0.31 | 49 | 1008.5 |
| 20260509214430 | 71 | 264 | 3.5 | 4.3 | 0.00 | 0.31 | 0.31 | 50 | 1008.5 |
| 20260509213926 | 72 | 228 | 3.5 | 5.2 | 0.00 | 0.31 | 0.31 | 51 | 1008.8 |
| 20260509213422 | 72 | 255 | 3.5 | 5.2 | 0.00 | 0.31 | 0.31 | 49 | 1008.9 |
| 20260509212920 | 72 | 34 | 2.6 | 4.3 | 0.00 | 0.31 | 0.31 | 50 | 1008.8 |
| 20260509212417 | 71 | 255 | 1.7 | 1.7 | 0.00 | 0.31 | 0.31 | 49 | 1008.7 |
| 20260509211913 | 71 | 196 | 2.6 | 2.6 | 0.00 | 0.31 | 0.31 | 52 | 1008.8 |
| 20260509211409 | 72 | 204 | 2.6 | 2.6 | 0.00 | 0.31 | 0.31 | 52 | 1008.8 |
| 20260509210905 | 71 | 259 | 2.6 | 4.3 | 0.00 | 0.31 | 0.31 | 52 | 1008.7 |
| 20260509210403 | 72 | 263 | 0.9 | 1.7 | 0.00 | 0.31 | 0.31 | 51 | 1008.8 |
| 20260509205903 | 73 | 295 | 0.9 | 1.7 | 0.00 | 0.31 | 0.31 | 49 | 1009.0 |
| 20260509205358 | 73 | 251 | 2.6 | 2.6 | 0.00 | 0.31 | 0.31 | 50 | 1008.9 |
| 20260509204855 | 71 | 256 | 1.7 | 1.7 | 0.00 | 0.31 | 0.31 | 53 | 1008.8 |
| 20260509204351 | 71 | 213 | 2.6 | 4.3 | 0.00 | 0.31 | 0.31 | 52 | 1008.8 |
| 20260509203848 | 71 | 171 | 3.5 | 5.2 | 0.00 | 0.31 | 0.31 | 52 | 1008.8 |
| 20260509203344 | 72 | 204 | 2.6 | 4.3 | 0.00 | 0.31 | 0.31 | 50 | 1008.7 |
| 20260509202841 | 72 | 285 | 2.6 | 2.6 | 0.00 | 0.31 | 0.31 | 51 | 1008.7 |
| 20260509202337 | 71 | 263 | 1.7 | 2.6 | 0.00 | 0.31 | 0.31 | 51 | 1008.9 |
| 20260509201837 | 71 | 237 | 2.6 | 2.6 | 0.00 | 0.31 | 0.31 | 53 | 1008.9 |
| 20260509201328 | 71 | 261 | 4.3 | 5.2 | 0.00 | 0.31 | 0.31 | 50 | 1008.9 |
| 20260509200824 | 72 | 246 | 4.3 | 7.0 | 0.00 | 0.31 | 0.31 | 51 | 1009.1 |
| 20260509200320 | 72 | 166 | 4.3 | 5.2 | 0.00 | 0.31 | 0.31 | 52 | 1009.0 |
| 20260509195817 | 71 | 239 | 0.9 | 1.7 | 0.00 | 0.31 | 0.31 | 52 | 1009.5 |
| 20260509195316 | 71 | 254 | 4.3 | 7.0 | 0.00 | 0.31 | 0.31 | 55 | 1009.3 |
| 20260509194816 | 71 | 233 | 5.2 | 6.1 | 0.00 | 0.31 | 0.31 | 52 | 1009.5 |
| 20260509194312 | 72 | 226 | 0.0 | 0.9 | 0.00 | 0.31 | 0.31 | 57 | 1009.4 |
| 20260509193809 | 71 | 304 | 0.0 | 0.0 | 0.00 | 0.31 | 0.31 | 54 | 1009.4 |
| 20260509193309 | 71 | 214 | 5.2 | 6.1 | 0.00 | 0.31 | 0.31 | 53 | 1009.5 |
| 20260509192805 | 71 | 184 | 5.2 | 7.0 | 0.00 | 0.31 | 0.31 | 55 | 1009.4 |
| 20260509192305 | 70 | 150 | 1.7 | 2.6 | 0.00 | 0.31 | 0.31 | 60 | 1009.7 |
| 20260509191756 | 69 | 258 | 5.2 | 7.8 | 0.00 | 0.31 | 0.31 | 58 | 1009.7 |
| 20260509191253 | 70 | 247 | 2.6 | 4.3 | 0.00 | 0.31 | 0.31 | 55 | 1009.6 |
| 20260509190749 | 71 | 171 | 4.3 | 6.1 | 0.00 | 0.31 | 0.31 | 56 | 1009.6 |
| 20260509190246 | 70 | 247 | 2.6 | 4.3 | 0.00 | 0.31 | 0.31 | 59 | 1009.7 |
| 20260509185743 | 71 | 171 | 3.5 | 4.3 | 0.00 | 0.31 | 0.31 | 55 | 1009.7 |
| 20260509185240 | 70 | 233 | 3.5 | 5.2 | 0.00 | 0.31 | 0.31 | 59 | 1009.8 |
| 20260509184737 | 69 | 227 | 1.7 | 2.6 | 0.00 | 0.31 | 0.31 | 58 | 1010.0 |
| 20260509184234 | 69 | 214 | 1.7 | 1.7 | 0.00 | 0.31 | 0.31 | 56 | 1009.9 |
| 20260509183731 | 67 | 259 | 2.6 | 2.6 | 0.00 | 0.31 | 0.31 | 62 | 1010.0 |
| 20260509183226 | 67 | 249 | 2.6 | 4.3 | 0.00 | 0.31 | 0.31 | 62 | 1009.9 |
| 20260509182721 | 67 | 183 | 2.6 | 2.6 | 0.00 | 0.31 | 0.31 | 64 | 1009.8 |
| 20260509182219 | 69 | 200 | 2.6 | 2.6 | 0.00 | 0.31 | 0.31 | 59 | 1009.8 |
| 20260509181717 | 70 | 280 | 3.5 | 7.0 | 0.00 | 0.31 | 0.31 | 55 | 1010.1 |
| 20260509181214 | 69 | 255 | 1.7 | 1.7 | 0.00 | 0.31 | 0.31 | 62 | 1010.0 |
| 20260509180711 | 69 | 192 | 1.7 | 2.6 | 0.00 | 0.31 | 0.31 | 59 | 1010.0 |
| 20260509180207 | 67 | 191 | 2.6 | 2.6 | 0.00 | 0.31 | 0.31 | 62 | 1009.9 |